Flag for Guadeloupe Weather past 2 weeks in Basse-Terre, Guadeloupe

Now
77 °F

Passing clouds.


Feels Like: 79 °F
Forecast: N/A
Wind: 3 mph from North

Location: Le Raizet - Guadeloupe

Current Time: Dec 18, 2014 at 7:10:56 PM

Latest Report: Dec 18, 2014 at 6:30 PM


Visibility: N/A

Pressure: 29.92 "Hg

Humidity: 74%

Dew point: 68 °F

Location of Basse-TerreLocation

Historic Weather in Basse-Terre — Graph

°F

Basse-Terre temperature yesterday

Maximum temperature yesterday: 86 °F (at 12:00 PM)
Minimum temperature yesterday: 70 °F (at 12:00 AM)
Average temperature yesterday: 75 °F

Past Weeks' High & Low Weather Summary

 TemperatureHumidityPressure
High86 °F (Dec 7, 11:00 AM)100% (Dec 5, 7:00 AM)30.04 "Hg (Dec 5, 7:00 AM)
Low68 °F (Dec 13, 3:30 AM)20% (Dec 17, 4:00 PM)29.77 "Hg (Dec 6, 3:30 PM)
Average77 °F81%29.92 "Hg
* Reported Dec 3 6:04 PM — Dec 18 6:00 PM, Basse-Terre, Weather by CustomWeather, © 2014

Note: Actual official high and low records may vary slightly from our data, if they occured in-between our weather recording intervals... More about our weather records

Advertising

Basse-Terre weather history for previous 24 hours

 ConditionsComfort  
Time TempWeatherWind HumidityBarometerVisibility
6:00 PM
Dec 18
79 °FPassing clouds.3 mph74%29.92 "HgN/A
5:30 PM79 °FScattered clouds.No wind74%29.92 "HgN/A
5:00 PM79 °FScattered clouds.3 mph79%29.92 "HgN/A
4:30 PM79 °FScattered clouds.3 mph74%29.92 "HgN/A
4:00 PM81 °FScattered clouds.2 mph74%29.92 "HgN/A
3:30 PM79 °FScattered clouds.No wind79%29.92 "HgN/A
3:07 PM77 °FScattered clouds.6 mph83%29.92 "HgN/A
2:36 PM79 °FScattered clouds.5 mph79%29.92 "HgN/A
2:05 PM79 °FScattered clouds.8 mph74%29.92 "HgN/A
1:30 PM81 °FScattered clouds.7 mph70%29.95 "HgN/A
1:00 PM81 °FScattered clouds.7 mph70%29.95 "HgN/A
12:30 PM81 °FScattered clouds.7 mph70%29.95 "HgN/A
12:00 PM82 °FScattered clouds.9 mph66%29.98 "HgN/A
11:18 AM81 °FScattered clouds.9 mph70%29.98 "HgN/A
10:30 AM81 °FScattered clouds.8 mph70%30.01 "HgN/A
10:00 AM81 °FScattered clouds.3 mph74%30.01 "HgN/A
9:30 AM81 °FScattered clouds.3 mph70%30.01 "HgN/A
9:15 AM79 °FScattered clouds.3 mph74%30.01 "HgN/A
8:30 AM75 °FScattered clouds.3 mph89%30.01 "HgN/A
8:00 AM73 °FScattered clouds.3 mph94%29.98 "HgN/A
7:30 AM72 °FScattered clouds.No wind100%29.98 "HgN/A
7:00 AM72 °FPartly sunny.2 mph94%29.98 "HgN/A
6:30 AM70 °FPartly sunny.No wind94%29.95 "HgN/A
6:00 AM70 °FPartly cloudy.2 mph94%29.95 "HgN/A
5:30 AM70 °FPassing clouds.1 mph94%29.95 "HgN/A
5:00 AM70 °FPassing clouds.2 mph94%29.92 "HgN/A
4:30 AM68 °FClear.No wind100%29.92 "HgN/A
4:00 AM70 °FClear.No wind94%29.92 "HgN/A
3:30 AM70 °FClear.No wind94%29.92 "HgN/A
3:00 AM70 °FClear.1 mph94%29.92 "HgN/A
2:30 AM70 °FPassing clouds.No wind94%29.92 "Hg5 mi
2:00 AM70 °FPassing clouds.No wind100%29.95 "HgN/A
1:30 AM70 °FClear.No wind100%29.95 "Hg5 mi
1:00 AM72 °FPassing clouds.No wind94%29.95 "Hg4 mi
12:30 AM72 °FPassing clouds.No wind94%29.98 "Hg4 mi
11:30 PM
Dec 17
72 °FClear.No wind94%29.98 "Hg4 mi
11:00 PM72 °FMild.No wind94%29.98 "Hg5 mi
10:30 PM72 °FClear.No wind94%29.98 "Hg6 mi
10:00 PM72 °FClear.No wind94%29.98 "HgN/A
9:30 PM72 °FClear.No wind94%30.01 "HgN/A
9:00 PM73 °FClear.No wind89%30.01 "HgN/A
8:30 PM73 °FClear.1 mph94%29.98 "HgN/A
8:00 PM73 °FClear.1 mph94%29.98 "HgN/A
7:30 PM73 °FClear.No wind94%29.98 "HgN/A
7:00 PM75 °FPassing clouds.No wind89%29.98 "HgN/A
Weather by CustomWeather, © 2014

See weather overviewHow to use our weather pages